Location: Oshawa
(43.9000°N, 78.8670°W)
Time: 19:15:10
(UTC-04:00)

OTV 5 (USA 277) - Visible Passes

Search period start: 27 May 2018 00:00
Search period end: 06 June 2018 00:00
Orbit: 308 x 326 km, 54.5° (Epoch: 06 May)

Date Brightness Start Highest point End Pass type
(mag) Time Alt. Az. Time Alt. Az. Time Alt. Az.
28 May ? 04:42:54 10° SE 04:43:33 11° SE 04:44:11 10° ESE visible
29 May ? 04:55:20 10° SSW 04:57:42 26° SE 05:00:06 10° ENE visible
31 May ? 03:51:42 15° SSE 03:52:21 17° SE 03:54:13 10° E visible
01 Jun ? 04:05:31 27° SSW 04:06:35 43° SE 04:09:14 10° ENE visible
02 Jun ? 04:19:15 20° WSW 04:20:58 65° NW 04:23:43 10° NE visible
03 Jun ? 03:02:05 21° ESE 03:02:05 21° ESE 03:03:34 10° ENE visible
03 Jun ? 04:33:01 10° W 04:35:29 28° NNW 04:37:57 10° NE visible
04 Jun ? 03:15:43 67° E 03:15:43 67° E 03:18:15 10° NE visible
04 Jun ? 04:48:11 10° WNW 04:50:06 17° NNW 04:52:02 10° NNE visible
05 Jun ? 03:29:18 34° WNW 03:29:56 41° NNW 03:32:35 10° NE visible
